Погода в Посёлке им. Коста Хетагурова

Россия / Карачаево-Черкесская Республика     43°48′11″N   41°54′23″E
темп.,
°C
ветер,
м/с
пор.,
м/с
влажн.,
%
обл.,
%
осадки,
мм/ч
давл.,
гПа
погр.,
м
13 июня, вс
вс1300:00+9юв2297100 0.4 101524
03:00+8юв2196100 0.4 101518
06:00+10ююв1195100 0.1 101456
09:00+12з1191100 0.3 1014236
12:00+16с2169100 0.6 1012959
15:00+17ссз2264100 1.0 10121124
18:00+15ссз228993 1.8 1013379
21:00+10ю009428 4.7 101511
14 июня, пн
пн1400:00+8юв22960 0.0 101531
03:00+7юв22940 0.0 101537
06:00+9юв23920 0.0 101572
09:00+18ссз11573 0.0 1011698
12:00+21сз32535 0.0 10101336
15:00+21ссз33615 0.8 10101172
18:00+18сз22790 1.1 1011427
21:00+12ююв229525 2.1 101218
15 июня, вт
вт1500:00+9юв3394100 0.1 101155
03:00+9юв339248 0.6 101147
06:00+11юв339015 0.1 101062
09:00+21ссз21445 0.2 1008578
12:00+22ссз43486 0.1 10081295
15:00+21ссз43622 0.7 10101076
18:00+18ссз22888 0.9 1011425
21:00+14ю019667 1.1 101311
16 июня, ср
ср1600:00+13юв229622 0.0 101242
03:00+9юв33910 0.0 101238
06:00+11юв22850 0.0 101050
09:00+21ссз21470 0.0 1006521
12:00+23сз32570 0.0 1006951
15:00+23сз43634 0.4 1007988
18:00+20сз228470 0.1 1008514
21:00+16зсз1198100 0.4 100927
17 июня, чт
чт1700:00+16юз119891 0.8 100937
03:00+15ю119762 1.4 100919
06:00+14ююз1197100 0.6 101181
09:00+16сз228829 2.0 1011441
12:00+17ссз448680 0.9 1013766
15:00+12з1299100 3.6 1017186
18:00+12ю2396100 0.3 1019110
21:00+11ююв229314 0.3 101936